Location: South Vallejo
(38.0877°N, 122.2433°W)
Time: 05:44:11
(UTC+00:00)

Daily predictions for brighter satellites

Satellite Brightness Start Highest point End
(mag) Time Altitude Azimuth Time Altitude Azimuth Time Altitude Azimuth
Cosmos 2278 Rocket 4.2 03:56:45 10° SW 04:01:53 34° WNW 04:07:02 10° N
ATLAS 2AS CENTAUR R/B 4.1 03:58:05 10° SSE 04:03:45 22° ESE 04:09:30 10° ENE
Cosmos 1634 Rocket 4.1 03:57:48 10° N 04:04:10 83° E 04:10:29 10° S
MetOp-A 4.3 03:59:21 10° SSE 04:04:36 61° ENE 04:09:52 10° N
STARLINK-1094 4.0 04:01:36 10° NW 04:05:41 60° SW 04:09:45 10° SE
CZ-2C R/B 3.7 04:04:05 10° NNE 04:08:38 68° ESE 04:13:13 10° S
STARLINK-1117 4.1 04:06:37 10° WNW 04:10:40 53° SW 04:14:41 10° SSE
GPS 2-04 Rocket1 3.1 04:08:06 10° W 04:11:17 37° SSW 04:14:20 11° SE
Cosmos 2221 Rocket 3.9 04:07:52 10° S 04:12:23 76° W 04:16:57 10° N
FALCON 9 DEB 4.2 04:11:10 10° S 04:13:56 23° SE 04:16:43 10° ENE
Ariane Rocket 3.8 04:09:20 10° S 04:14:16 52° W 04:19:14 10° NNW
STARLINK-1078 4.3 04:11:37 10° WNW 04:15:37 48° SW 04:19:35 10° SSE
Okean 1 Rocket 4.4 04:12:03 10° NNE 04:15:37 23° ENE 04:18:48 12° SE
SL-4 R/B 2.3 04:11:04 10° SW 04:15:39 84° SE 04:20:28 10° NE
Cosmos 1741 Rocket 4.1 04:12:02 10° NNW 04:17:15 66° ENE 04:22:26 10° SSE
Cosmos 1110 Rocket 4.0 04:13:19 10° S 04:18:26 64° ESE 04:23:32 10° NNE
DMSP B5D2-2 4.1 04:13:28 10° NNE 04:18:46 89° ESE 04:24:01 10° SSW
STARLINK-1108 4.5 04:16:38 10° WNW 04:20:34 43° SW 04:24:26 10° SSE
STARLINK-1121 4.5 04:18:55 10° NW 04:22:52 41° NE 04:26:30 12° ESE
Cosmos 1850 Rocket 4.1 04:18:40 10° NNW 04:24:02 81° ENE 04:29:22 10° SSE
MOS 1 Rocket 3.9 04:20:47 10° N 04:24:58 55° WNW 04:29:09 10° SSW
STARLINK-60 4.1 04:22:26 10° WSW 04:25:29 47° NW 04:28:34 10° NE
Cosmos 1437 Rocket 2.7 04:23:29 10° S 04:27:15 87° W 04:31:07 10° N
Meteor 1-13 Rocket 4.4 04:21:48 10° SSW 04:27:25 80° W 04:33:13 10° N
STARLINK-1106 4.3 04:23:54 10° NW 04:27:53 45° NE 04:31:18 13° ESE
Okean 2 Rocket 3.3 04:23:30 10° NNW 04:27:54 73° W 04:32:15 10° S
ATLAS CENTAUR R/B 3.1 04:28:14 14° SE 04:29:25 16° ESE 04:32:01 10° ENE
Abrixas rocket 1.9 04:26:39 10° NW 04:29:36 73° NNE 04:31:38 18° ESE
Cosmos 1331 Rocket 3.9 04:25:46 10° S 04:30:53 75° ESE 04:36:05 10° NNE
ASTRO E2 4.0 04:28:14 10° WSW 04:31:30 24° SSW 04:33:40 16° SSE
STARLINK-1112 4.2 04:28:51 10° NW 04:32:53 49° NE 04:36:05 15° ESE
Resurs 01 Rocket 1.7 04:32:17 12° SSE 04:36:17 65° ENE 04:40:42 10° N
USA 245 4.4 04:36:22 13° E 04:36:51 14° ENE 04:38:15 10° NE
Cosmos 1300 Rocket 4.0 04:33:02 10° NNW 04:37:26 65° W 04:41:47 10° S
Cosmos 304 Rocket 4.5 04:32:54 10° SSW 04:37:35 57° WNW 04:42:19 10° N
STARLINK-1128 4.1 04:33:47 10° NW 04:37:51 53° NE 04:40:51 17° ESE
deb Kosmos-1763 4.0 04:34:26 10° NNW 04:38:02 70° ENE 04:40:34 18° SSE
CZ-2C R/B 3.3 04:33:53 10° N 04:39:27 64° WNW 04:44:56 10° SSW
STARLINK-1444 4.1 04:39:21 10° WSW 04:41:12 29° NW 04:43:03 10° NNE
STARLINK-1452 4.1 04:40:00 10° WSW 04:41:50 28° NW 04:43:39 10° NNE
BREEZE-M DEB (TANK) 2.9 04:39:48 10° SSW 04:42:04 39° SE 04:46:51 10° ENE
STARLINK-1113 3.9 04:38:46 10° NW 04:42:52 59° NE 04:45:39 19° ESE
STARLINK-1450 4.2 04:41:13 10° W 04:42:58 26° NW 04:44:44 10° NNE
SPOT 3 Rocket 3.8 04:37:58 10° S 04:43:05 68° WSW 04:48:15 10° NNW
STARLINK-1392 4.2 04:41:22 10° W 04:43:07 26° NW 04:44:52 10° NNE
STARLINK-1399 4.2 04:41:23 10° W 04:43:08 26° NW 04:44:53 10° NNE
STARLINK-1415 4.2 04:41:23 10° W 04:43:08 26° NW 04:44:53 10° NNE
STARLINK-1394 4.2 04:41:24 10° W 04:43:09 26° NW 04:44:53 10° NNE
STARLINK-1436 (VISORSAT) 4.2 04:41:23 10° W 04:43:09 26° NW 04:44:55 10° NNE
STARLINK-1395 4.2 04:41:25 10° W 04:43:09 26° NW 04:44:54 10° NNE
STARLINK-1393 4.2 04:41:25 10° W 04:43:09 26° NW 04:44:54 10° NNE
STARLINK-1414 4.2 04:41:23 10° W 04:43:10 27° NW 04:44:56 10° NNE
STARLINK-1396 4.2 04:41:25 10° W 04:43:10 26° NW 04:44:54 10° NNE
STARLINK-1401 4.2 04:41:25 10° W 04:43:10 26° NW 04:44:55 10° NNE
STARLINK-1397 4.2 04:41:25 10° W 04:43:10 26° NW 04:44:55 10° NNE
STARLINK-1416 4.2 04:41:24 10° W 04:43:11 27° NW 04:44:57 10° NNE
STARLINK-1453 4.2 04:41:26 10° W 04:43:11 26° NW 04:44:55 10° NNE
STARLINK-1404 4.2 04:41:27 10° W 04:43:11 26° NW 04:44:56 10° NNE
STARLINK-1408 4.2 04:41:25 10° W 04:43:12 27° NW 04:44:58 10° NNE
STARLINK-1398 4.2 04:41:25 10° W 04:43:12 27° NW 04:44:59 10° NNE
STARLINK-1402 4.2 04:41:28 10° W 04:43:12 26° NW 04:44:57 10° NNE
STARLINK-1417 4.2 04:41:28 10° W 04:43:12 26° NW 04:44:57 10° NNE
STARLINK-1419 4.2 04:41:27 10° W 04:43:13 27° NW 04:45:00 10° NNE
STARLINK-1413 4.2 04:41:29 10° W 04:43:14 26° NW 04:44:58 10° NNE
STARLINK-1406 4.2 04:41:30 10° W 04:43:15 26° NW 04:44:59 10° NNE
STARLINK-1440 4.2 04:41:31 10° W 04:43:16 26° NW 04:45:00 10° NNE
STARLINK-1445 4.2 04:41:32 10° W 04:43:17 26° NW 04:45:01 10° NNE
STARLINK-1420 4.2 04:41:30 10° W 04:43:17 27° NW 04:45:04 10° NNE
STARLINK-1443 4.2 04:41:33 10° W 04:43:18 26° NW 04:45:02 10° NNE
STARLINK-1422 4.2 04:41:31 10° W 04:43:18 26° NW 04:45:04 10° NNE
STARLINK-1454 4.2 04:41:33 10° W 04:43:18 26° NW 04:45:02 10° NNE
STARLINK-1457 4.2 04:41:34 10° W 04:43:19 26° NW 04:45:03 10° NNE
STARLINK-1460 4.2 04:41:32 10° W 04:43:19 26° NW 04:45:06 10° NNE
STARLINK-1456 4.2 04:41:34 10° W 04:43:19 26° NW 04:45:03 10° NNE
STARLINK-1451 4.2 04:41:35 10° W 04:43:19 26° NW 04:45:04 10° NNE
STARLINK-1442 4.2 04:41:36 10° W 04:43:21 26° NW 04:45:05 10° NNE
STARLINK-1458 4.2 04:41:34 10° W 04:43:21 26° NW 04:45:07 10° NNE
STARLINK-1405 4.2 04:41:39 10° W 04:43:23 26° NW 04:45:07 10° NNE
STARLINK-1421 4.2 04:41:39 10° W 04:43:23 26° NW 04:45:08 10° NNE
STARLINK-1410 4.2 04:41:39 10° W 04:43:24 26° NW 04:45:08 10° NNE
STARLINK-1400 4.2 04:41:39 10° W 04:43:24 26° NW 04:45:08 10° NNE
STARLINK-1446 4.2 04:41:37 10° W 04:43:24 26° NW 04:45:11 10° NNE
STARLINK-1407 4.2 04:41:40 10° W 04:43:25 26° NW 04:45:09 10° NNE
STARLINK-1437 4.2 04:41:38 10° W 04:43:25 26° NW 04:45:11 10° NNE
STARLINK-1439 4.2 04:41:40 10° W 04:43:25 26° NW 04:45:09 10° NNE
STARLINK-1409 4.2 04:41:41 10° W 04:43:26 26° NW 04:45:10 10° NNE
STARLINK-1423 4.2 04:41:39 10° W 04:43:26 26° NW 04:45:12 10° NNE
STARLINK-1351 4.2 04:41:42 10° W 04:43:26 26° NW 04:45:12 10° NNE
STARLINK-1370 4.2 04:41:42 10° W 04:43:26 26° NW 04:45:12 10° NNE
STARLINK-1447 4.2 04:41:40 10° W 04:43:27 26° NW 04:45:15 10° NNE
STARLINK-1434 4.2 04:41:42 10° W 04:43:27 26° NW 04:45:12 10° NNE
STARLINK-1418 4.2 04:41:42 10° W 04:43:27 26° NW 04:45:12 10° NNE
STARLINK-1403 4.2 04:41:43 10° W 04:43:28 26° NW 04:45:13 10° NNE
STARLINK-1455 4.2 04:41:40 10° W 04:43:28 26° NW 04:45:16 10° NNE
STARLINK-1441 4.2 04:41:41 10° W 04:43:29 26° NW 04:45:16 10° NNE
STARLINK-1433 4.2 04:41:45 10° W 04:43:29 26° NW 04:45:14 10° NNE
STARLINK-1411 4.2 04:41:46 10° W 04:43:30 26° NW 04:45:15 10° NNE
STARLINK-1448 4.2 04:41:44 10° W 04:43:31 26° NW 04:45:18 10° NNE
STARLINK-1438 4.2 04:41:47 10° W 04:43:31 26° NW 04:45:16 10° NNE
STARLINK-1449 4.2 04:41:45 10° W 04:43:31 26° NW 04:45:19 10° NNE
STARLINK-1412 4.2 04:41:52 10° W 04:43:40 26° NW 04:45:27 10° NNE
Cosmos 2151 Rocket 3.9 04:39:13 10° NNW 04:43:45 72° W 04:48:14 10° S
Cosmos 1302 Rocket 4.2 04:39:33 10° S 04:44:38 50° ESE 04:49:44 10° NNE
Cosmos 1943 Rocket 2.1 04:40:15 10° S 04:45:44 68° ESE 04:51:18 10° NNE
STARLINK-1119 3.8 04:43:43 10° NW 04:47:50 65° NE 04:50:25 22° ESE
Resurs 1-3 4.1 04:45:29 10° S 04:49:47 57° W 04:54:07 10° NNW
H-2A R/B 4.5 04:46:33 10° SW 04:50:08 19° W 04:53:49 10° NW
Cosmos 1766 4.4 04:47:33 10° NNE 04:51:01 28° ENE 04:52:31 22° ESE
STARLINK-1114 3.7 04:48:42 10° NW 04:52:50 72° NE 04:55:13 24° ESE
Cosmos 1674 Rocket 4.2 04:52:01 10° SSW 04:56:18 57° W 05:00:41 10° N
Cosmos 1378 Rocket 3.7 04:51:57 10° S 04:56:20 77° W 05:00:43 10° N
Aureole 2 4.1 04:53:27 10° NNW 04:56:25 74° WSW 04:57:46 28° S
STARLINK-29 3.8 04:54:31 10° WSW 04:57:40 51° NW 05:00:50 10° NE
STARLINK-1130 (DARKSAT) 3.6 04:53:39 10° NW 04:57:48 79° NE 04:59:59 27° SE
CENTAUR R/B 4.0 04:52:34 10° NNW 05:00:05 39° NE 05:06:36 16° ESE
Milstar 3 Cent rocket 4.0 04:55:39 10° SW 05:02:38 38° SSE 05:16:08 10° E
STARLINK-1084 3.5 04:58:38 10° NW 05:02:47 87° NE 05:04:47 30° SE
STARLINK-1371 4.2 05:05:40 31° ESE 05:05:40 31° ESE 05:08:51 10° ENE
Nadezhda 4 Rocket 3.9 05:00:03 10° S 05:06:11 89° W 05:12:20 10° N
Cosmos 1656 Rocket 4.3 05:04:04 23° SSE 05:06:34 34° ESE 05:11:31 10° NE
STARLINK-1098 3.5 05:03:35 10° NW 05:07:45 85° SW 05:09:33 33° SE
STARLINK-1341 4.1 05:09:39 34° SE 05:09:39 34° SE 05:13:02 10° ENE
Cosmos 292 Rocket 3.9 05:09:17 21° S 05:12:23 55° ESE 05:17:08 10° NNE
STARLINK-1123 3.6 05:08:35 10° NW 05:12:43 77° SW 05:14:20 36° SE
SL-8 R/B 3.6 05:07:54 10° WNW 05:12:44 89° SW 05:15:03 31° SE
STARLINK-1374 3.9 05:13:39 37° SE 05:13:39 37° SE 05:17:11 10° ENE
Cosmos 1378 3.2 05:12:05 19° SSW 05:14:37 74° W 05:18:19 10° N
Cosmos 2082 Rocket 4.0 05:11:59 10° NW 05:16:35 26° WSW 05:21:08 10° SSW
STARLINK-1097 3.6 05:13:34 10° NW 05:17:42 69° SW 05:19:07 38° SSE
STARLINK-1339 3.8 05:17:36 41° SE 05:17:42 41° SE 05:21:24 10° ENE
Cosmos 2369 Rocket 2.2 05:12:56 10° SSW 05:18:37 90° WNW 05:24:18 10° NNE
MetOp-B 4.2 05:16:07 22° S 05:19:38 77° WSW 05:25:01 10° NNW
ERS-1 Rocket 3.5 05:19:12 30° ESE 05:21:12 44° ENE 05:25:59 10° N
NOSS 3-2 (C) 4.5 05:13:46 10° NNW 05:21:17 54° NE 05:26:32 24° ESE
Cosmos 1975 Rocket 3.0 05:19:47 32° SSE 05:21:41 64° E 05:26:02 10° NNE
STARLINK-1377 3.7 05:21:34 44° SSE 05:21:51 45° SE 05:25:37 10° ENE
STARLINK-1099 3.7 05:18:33 10° NW 05:22:39 62° SW 05:23:53 41° SSE
Cosmos 1805 3.1 05:20:17 10° N 05:24:13 88° E 05:25:31 41° S
STARLINK-1353 3.6 05:25:29 46° SSE 05:26:01 50° SE 05:29:50 10° ENE
NOSS 3-4 (A) 3.3 05:20:23 10° SSW 05:26:13 68° ESE 05:32:19 10° NE
NOSS 3-4 (C) 3.3 05:20:29 10° SSW 05:26:19 67° ESE 05:32:26 10° NE
STARLINK-1104 3.9 05:23:34 10° NW 05:27:38 56° SW 05:28:41 42° S
Landsat 7 3.7 05:25:57 33° SSE 05:28:09 90° SSW 05:32:56 10° NNW
Lacrosse 5 4.5 05:28:40 10° WSW 05:29:00 10° WSW 05:29:19 10° WSW
STARLINK-1367 4.5 05:30:52 24° NE 05:30:52 24° NE 05:32:17 10° NE
Cosmos 1470 4.2 05:26:31 10° NNE 05:29:35 22° ENE 05:29:35 22° ENE
STARLINK-1375 3.5 05:29:31 47° S 05:30:12 55° SE 05:34:03 10° ENE
STARLINK-1144 4.0 05:28:34 10° WNW 05:32:35 50° SW 05:33:28 42° S
SAR-Lupe-2 4.2 05:29:28 10° N 05:32:59 54° WNW 05:34:57 23° SW
STARLINK-1350 3.4 05:33:29 46° S 05:34:22 61° SE 05:38:15 10° NE
SWAS 4.4 05:30:25 10° NNW 05:34:45 80° WSW 05:35:58 46° S
Cosmos 968 Rocket 4.1 05:31:32 10° N 05:36:23 41° ENE 05:37:51 33° ESE
Cosmos 1842 3.1 05:36:05 51° S 05:37:01 86° E 05:40:55 10° N
Cosmos 1733 3.0 05:33:40 10° N 05:37:28 83° E 05:38:02 62° SSE
STARLINK-1103 4.1 05:33:35 10° WNW 05:37:32 45° SW 05:38:14 40° SSW
STARLINK-1352 3.3 05:37:31 43° SSW 05:38:37 67° SE 05:42:32 10° NE
STARLINK-1101 4.3 05:38:36 10° WNW 05:42:29 40° SW 05:43:01 38° SSW
STARLINK-1368 3.3 05:41:33 39° SSW 05:42:53 74° SE 05:46:49 10° NE
STARLINK-1369 3.3 05:45:36 35° SW 05:47:09 81° SE 05:51:06 10° NE
STARLINK-1102 4.5 05:43:39 10° WNW 05:47:28 36° SW 05:47:49 35° SW
BREEZE-M DEB (TANK) 3.4 05:36:06 10° SW 05:49:01 57° SE 05:53:03 10° ENE
Cosmos 1953 4.2 05:48:08 10° NNE 05:50:26 18° ENE 05:50:26 18° ENE
STARLINK-1372 3.3 05:49:38 31° SW 05:51:27 88° SE 05:55:24 10° NE
Cosmos 1271 Rocket 2.8 05:51:50 58° ENE 05:51:50 58° ENE 05:55:31 10° NNE
ATLAS 3B CENTAUR R/B 3.6 05:38:09 10° W 05:53:23 47° SSW 05:56:32 35° SSE
ATLAS 2AS CENTAUR R/B 3.2 05:46:03 10° SW 05:53:58 78° WNW 06:02:00 10° NNE
Cosmos 1455 Rocket 2.9 05:50:26 10° N 05:54:46 82° E 05:55:19 67° SSE
STARLINK-1378 3.4 05:53:38 27° SW 05:55:43 84° NW 05:59:41 10° NE
Cosmos 1092 Rocket 4.5 05:51:41 16° SSW 05:56:30 56° W 06:02:34 10° N
STARLINK-1235 4.1 05:54:05 10° NW 05:57:16 39° NE 05:57:16 39° NE
SL-27 R/B 2.8 05:54:34 10° NNW 05:57:55 56° W 05:57:55 56° W
COSMOS 2455 2.7 05:56:28 32° SSW 05:59:25 75° ESE 06:05:26 10° NNE
NOSS 3-2 (A) 4.3 05:51:56 10° NW 05:59:41 67° WSW 06:03:41 34° S
STARLINK-1379 3.5 05:57:43 23° SW 06:00:04 77° NW 06:04:02 10° NE
CARTOSAT-1 3.6 06:00:05 60° SSW 06:00:45 74° W 06:05:04 10° NNW
COSMOS 2487 4.4 05:59:13 10° NNE 06:01:15 20° NE 06:01:15 20° NE
Cosmos 1707 3.2 06:03:58 49° NE 06:03:58 49° NE 06:07:09 10° NNE
STARLINK-1329 3.6 06:00:56 21° WSW 06:03:30 72° NW 06:07:27 10° NE
SPOT 5 3.1 06:04:50 49° S 06:06:17 78° WSW 06:11:40 10° NNW
STARLINK-1362 3.8 06:04:32 13° WSW 06:07:57 66° NW 06:11:56 10° NE
ATLAS CENTAUR R/B 2.3 06:04:12 13° SW 06:08:01 48° NW 06:12:06 10° NNE
Cosmos 1758 3.5 06:05:29 10° N 06:09:14 60° ENE 06:09:14 60° ENE
STARLINK-1373 3.9 06:09:15 16° WSW 06:12:17 60° NW 06:16:14 10° NE
Cosmos 1242 Rocket 3.6 06:12:37 39° W 06:13:00 41° WNW 06:16:31 10° N
Resurs 01 Rocket 4.5 06:12:50 10° W 06:13:10 10° W 06:13:30 10° W
Terra 1.6 06:12:47 69° SSE 06:13:21 90° ESE 06:18:09 10° NNW
USA 238 DEB 4.3 06:07:05 10° NW 06:14:08 53° WSW 06:16:55 36° S
USA 238 4.3 06:07:11 10° NW 06:14:14 54° WSW 06:17:02 36° S
Meteor 2-10 4.3 06:11:25 10° N 06:16:17 47° ENE 06:16:35 46° E
STARLINK-1390 4.1 06:13:24 14° WSW 06:16:43 55° NW 06:20:38 10° NE
Cosmos 1503 Rocket 4.0 06:12:26 10° NNW 06:17:46 73° ENE 06:18:32 62° SE
STARLINK-1365 4.4 06:17:16 10° WSW 06:21:10 50° NW 06:25:05 10° NE
Cosmos 1536 Rocket 3.5 06:21:52 79° NE 06:21:52 79° NE 06:26:02 10° N
Cosmos 2084 3.5 06:28:27 76° N 06:28:27 76° N 06:32:36 10° NNE
SeaSat 1 3.8 06:27:04 10° NE 06:29:54 26° ENE 06:29:54 26° ENE
Cosmos 1544 Rocket 4.0 06:27:55 10° NNW 06:32:08 51° W 06:32:12 51° W
S3M 3.9 06:32:32 10° N 06:38:47 83° E 06:39:53 63° SSE
Cosmos 1354 Rocket 3.9 06:34:30 10° NNW 06:39:50 81° WSW 06:40:09 76° SSW
Cosmos 1833 4.2 06:34:57 10° NNW 06:40:33 66° WSW 06:41:08 61° SW
BREEZE-M DEB (TANK) 3.8 06:36:27 10° NW 06:46:46 60° NNE 06:47:33 52° ENE
Meteor 2-8 Rocket 4.3 06:40:56 10° N 06:47:07 83° W 06:48:06 65° S
Cosmos 1553 Rocket 4.3 06:43:27 10° NNW 06:49:31 58° W 06:50:52 48° SW
CENTAUR R/B 3.5 06:43:05 10° NW 06:51:14 58° WSW 06:53:47 44° SSW
Spot 4 4.2 06:57:58 59° NE 06:57:58 59° NE 07:02:25 10° N
Meteor 1-16 Rocket 3.9 06:52:31 10° N 06:57:57 85° E 06:57:57 85° E
ATLAS 3B R/B 2.6 06:51:59 10° NNW 06:58:52 84° ENE 07:00:14 61° SE
ALOS 2 4.1 07:00:41 28° NE 07:00:41 28° NE 07:03:52 10° N
Cosmos 1674 4.3 07:05:24 33° N 07:05:24 33° N 07:07:36 10° N
Cosmos 1726 3.7 07:01:56 10° NNW 07:04:12 33° NNW 07:04:12 33° NNW
Cosmos 2266 Rocket 4.0 07:06:50 59° SW 07:07:45 68° W 07:13:46 10° N
Cosmos 2098 Rocket 4.3 07:08:10 62° S 07:09:35 85° E 07:17:05 10° N
Cosmos 2227 Rocket 4.0 07:06:15 10° N 07:10:32 21° NE 07:12:15 19° E
Cosmos 1340 Rocket 4.1 07:08:59 10° NNW 07:11:48 37° NW 07:11:48 37° NW
Exosat Rocket 4.1 07:08:06 10° NNW 07:16:14 73° WSW 07:16:59 66° SSW
RESURS DK-1 3.9 07:20:07 32° NW 07:20:07 32° NW 07:23:40 10° N
Cosmos 921 Rocket 4.1 07:21:53 42° NNE 07:21:53 42° NNE 07:24:50 10° NNE
Meteor 2-5 Rocket 3.6 07:24:06 80° NE 07:24:06 80° NE 07:29:30 10° N
Cosmos 2228 4.0 07:19:37 10° N 07:22:34 44° N 07:22:34 44° N
Lacrosse 4 Rocket 4.2 07:25:52 10° NNE 07:27:12 11° NE 07:28:19 10° ENE
Cosmos 1953 4.3 07:23:54 10° NNW 07:26:08 23° WNW 07:26:08 23° WNW
Meteor 2-21 4.4 07:27:49 71° ESE 07:27:55 71° E 07:34:06 10° NNE
Cosmos 1244 Rocket 4.4 07:30:39 70° E 07:30:44 71° E 07:36:53 10° NNE
Cosmos 1626 4.2 07:35:29 25° NNE 07:35:29 25° NNE 07:37:10 10° NNE
Cosmos 1777 Rocket 4.3 07:33:15 10° NNW 07:37:45 59° WNW 07:37:45 59° WNW
Helios 1A 4.4 07:41:24 33° NE 07:41:24 33° NE 07:44:12 10° N
CZ-4C R/B 2.7 07:45:19 44° ENE 07:45:19 44° ENE 07:49:22 10° NE
SL-08 R/B 4.5 07:50:15 71° ESE 07:50:23 71° E 07:56:43 10° NNE
SJ 16-02 3.0 07:46:34 10° N 07:49:50 29° NE 07:49:50 29° NE
Cosmos 1980 Rocket 3.9 07:54:20 20° E 07:54:20 20° E 07:57:24 10° NE
Meteor 2-14 Rocket 4.4 07:55:28 75° W 07:55:38 76° W 08:01:47 10° N
Meteor 2-21 Rocket 4.3 07:58:49 84° WSW 07:58:55 85° W 08:05:10 10° N
Cosmos 2369 4.4 08:02:55 44° ENE 08:02:55 44° ENE 08:07:24 10° NE
ATLAS CENTAUR R/B 4.3 08:02:03 10° N 08:02:52 16° N 08:02:52 16° N
Meteor 1-24 Rocket 4.1 08:07:36 52° WNW 08:07:36 52° WNW 08:12:45 10° N
SeaSat 1 3.8 08:04:36 10° N 08:08:54 31° NW 08:09:40 29° WNW
Cosmos 468 Rocket 4.3 08:13:10 61° NNE 08:13:10 61° NNE 08:17:24 10° NNE
Cosmos 1656 3.9 08:15:17 65° WNW 08:15:17 65° WNW 08:20:47 10° NNE
Cosmos 2297 Rocket 2.2 08:11:38 10° NNW 08:16:57 78° N 08:16:57 78° N
Cosmos 2219 3.3 08:14:31 10° NNW 08:19:29 65° WNW 08:19:29 65° WNW
Cosmos 1709 Rocket 4.4 08:23:15 49° E 08:23:29 49° E 08:29:23 10° NNE
Cosmos 1937 Rocket 4.3 08:20:31 10° N 08:25:32 43° ENE 08:25:47 43° ENE
USA 215 4.0 08:22:46 15° ESE 08:28:06 51° NE 08:34:23 10° NW
Cosmos 2082 4.1 08:25:40 10° NNW 08:31:12 53° ENE 08:31:40 52° E
Cosmos 1898 Rocket 3.7 08:28:02 10° NNW 08:32:57 68° NE 08:32:57 68° NE
Meteor 2-1 Rocket 4.2 08:28:51 10° N 08:34:14 76° ENE 08:34:14 76° ENE
Cosmos 2278 3.8 08:39:07 65° E 08:39:07 65° E 08:44:19 10° NNE
Cosmos 1697 Rocket 2.7 08:39:13 75° NW 08:39:13 75° NW 08:44:45 10° NNE
Nadezhda 1 Rocket 3.9 08:37:31 10° N 08:43:46 73° W 08:43:59 72° WSW
Cosmos 990 Rocket 4.2 08:39:49 10° NNW 08:44:22 67° NNW 08:44:22 67° NNW
Cosmos 1814 Rocket 4.3 08:47:07 60° ENE 08:47:07 60° ENE 08:51:50 10° NNE
Cosmos 2285 Rocket 4.4 08:40:53 10° N 08:47:08 57° ENE 08:48:31 47° ESE
Helios 1B rocket 3.6 08:44:25 10° N 08:47:12 41° N 08:47:12 41° N
Resurs 1-4 Rocket 3.6 08:49:28 10° NE 08:53:47 25° E 08:54:06 25° E
Cosmos 2227 Rocket 2.7 08:49:23 10° NNW 08:54:03 49° WNW 08:54:03 49° WNW
Cosmos 1825 Rocket 4.4 08:57:30 48° NNE 08:57:30 48° NNE 09:00:44 10° NNE
Cosmos 841 Rocket 3.5 08:58:06 76° N 08:58:06 76° N 09:02:55 10° NNE
Cosmos 1570 Rocket 4.1 09:01:12 68° NW 09:01:12 68° NW 09:06:14 10° NNE
Cosmos 1763 Rocket 4.4 09:05:57 36° WNW 09:05:57 36° WNW 09:10:35 10° N
SL-16 R/B 3.6 09:05:59 26° ESE 09:06:23 26° ESE 09:10:59 10° NE
Lacrosse 4 Rocket 2.9 09:02:12 10° NNW 09:04:36 32° NW 09:04:36 32° NW
Cosmos 1455 3.9 09:09:09 10° NNW 09:11:04 28° NNW 09:11:04 28° NNW
Cosmos 2208 Rocket 4.3 09:19:06 57° WNW 09:19:07 57° WNW 09:24:24 10° N
FALCON 9 R/B 3.0 09:20:20 55° SW 09:21:23 60° S 09:38:46 10° ESE
CZ-2D R/B 2.7 09:17:42 10° NNE 09:22:42 44° E 09:23:08 43° ESE
DELTA 2 DEB (DPAF) 4.5 09:23:37 61° ENE 09:23:37 61° ENE 09:27:53 10° N
USA 81 4.5 09:24:19 48° WNW 09:24:19 48° WNW 09:29:14 10° N
Meteor 2-10 Rocket 4.1 09:21:01 10° NNW 09:25:10 44° WNW 09:25:10 44° WNW
SJ 16-02 3.6 09:25:30 10° NW 09:26:48 16° WNW 09:26:48 16° WNW
Cosmos 2360 Rocket 4.2 09:28:00 14° ESE 09:29:43 16° E 09:33:04 10° ENE
CZ-4C R/B 4.0 09:30:27 15° WNW 09:32:58 21° NW 09:37:20 10° N
Cosmos 2184 Rocket 4.0 09:33:27 53° SSE 09:34:50 69° E 09:40:57 10° NNE
Cosmos 1980 Rocket 2.7 09:36:05 44° W 09:36:49 47° WNW 09:42:16 10° N
STARLINK-1288 4.3 09:39:04 49° ENE 09:39:04 49° ENE 09:42:13 10° NE
MOZ.5/SAFIR/RUBIN 5/SL-8 3.7 09:41:21 79° ESE 09:41:28 80° ENE 09:46:08 10° N
STARLINK-1308 4.1 09:43:53 57° ENE 09:43:53 57° ENE 09:47:14 10° NE
Cosmos 540 Rocket 4.4 09:42:52 33° WNW 09:43:15 34° WNW 09:47:54 10° N
Meteor 1-11 4.1 09:43:19 65° SW 09:43:55 72° W 09:49:30 10° N
BREEZE M DEB (TANK) 3.4 09:46:52 52° ENE 09:46:52 52° ENE 09:52:13 10° ESE
STARLINK-61 4.4 09:47:33 42° ENE 09:47:33 42° ENE 09:50:22 10° NE
Timation 1 Rocket 4.3 09:40:43 10° NNW 09:46:44 82° ENE 09:48:53 42° SSE
Cosmos 2084 Rocket 4.0 09:43:22 10° NW 09:46:51 52° NW 09:46:51 52° NW
Cosmos 1400 Rocket 3.3 09:45:28 10° NNW 09:48:51 57° NNW 09:48:51 57° NNW
STARLINK-1304 3.8 09:53:25 71° NNE 09:53:25 71° NNE 09:57:10 10° NE
STARLINK-1278 3.8 09:54:59 68° NNW 09:54:59 68° NNW 09:59:07 10° NE
STARLINK-1280 3.8 09:56:44 66° NW 09:56:44 66° NW 10:00:57 10° NE
NOSS 2-1 (E) 3.7 09:59:04 50° NNE 09:59:04 50° NNE 10:01:46 10° NNE
Cosmos 2263 Rocket 2.5 09:52:43 10° NNW 09:58:17 65° ENE 10:01:31 25° SE
Cosmos 2181 Rocket 4.3 09:52:12 10° NNW 09:58:22 49° W 09:59:30 44° WSW
CZ-4B R/B 3.5 09:58:37 10° NNE 10:03:54 80° ESE 10:05:08 54° S
ADEOS II 3.0 09:59:14 10° NNE 10:04:11 41° E 10:06:13 29° SE
GP-B 3.5 10:01:54 10° N 10:06:01 47° WNW 10:06:01 47° WNW
Cosmos 1408 4.4 10:06:11 22° ESE 10:07:01 24° E 10:10:01 10° NE
Cosmos 2221 2.8 10:02:47 10° N 10:07:08 62° E 10:08:05 48° SE
NPP 3.6 10:02:44 10° N 10:08:09 79° WNW 10:09:24 54° SSW
Meteor 2-17 Rocket 4.3 10:06:33 47° SSW 10:08:27 84° W 10:14:37 10° N
STARLINK-1286 3.9 10:08:20 57° WNW 10:08:37 58° NW 10:12:44 10° NE
Cosmos 2154 Rocket 4.0 10:06:42 42° S 10:09:00 83° E 10:15:15 10° N
USA 215 3.5 10:10:02 42° SSW 10:11:05 45° SW 10:17:20 10° WNW
Cosmos 1842 Rocket 3.5 10:06:44 10° N 10:11:12 87° ENE 10:11:49 66° SSE
IRS-1D 3.8 10:06:22 10° NNE 10:11:35 63° ESE 10:13:13 41° SSE
SL-16 R/B 2.4 10:09:40 43° S 10:11:45 71° WSW 10:17:57 10° NNW
STARLINK-1281 3.9 10:12:34 53° WNW 10:12:58 56° NW 10:17:03 10° NE
STARLINK-27 4.5 10:14:17 33° ESE 10:14:17 33° ESE 10:16:59 10° ENE
Iridium 2 3.6 10:10:42 10° N 10:14:26 85° NE 10:14:26 85° NE
Cosmos 2322 Rocket 2.1 10:13:24 49° SSW 10:14:59 85° ESE 10:20:37 10° NNE
STARLINK-74 4.4 10:15:51 34° ESE 10:15:51 34° ESE 10:18:38 10° ENE
STARLINK-39 4.3 10:17:16 36° ESE 10:17:16 36° ESE 10:20:05 10° ENE
CZ-4C R/B 4.0 10:17:11 46° W 10:17:11 46° W 10:21:11 10° NNW
In-Cosmos 22 Rocket 4.3 10:15:00 40° S 10:17:06 73° E 10:22:35 10° NNE
STARLINK-1310 4.1 10:17:19 46° WNW 10:17:56 51° NW 10:21:59 10° NE
STARLINK-31 4.2 10:18:46 38° ESE 10:18:46 38° ESE 10:21:39 10° ENE
ARIANE 5 R/B 3.8 10:14:46 10° NE 10:19:14 32° E 10:22:00 19° SSE
STARLINK-69 3.9 10:20:26 44° ESE 10:20:26 44° ESE 10:23:27 10° ENE
STARLINK-21 4.0 10:21:53 42° ESE 10:21:53 42° ESE 10:24:55 10° ENE
STARLINK-1319 4.3 10:22:06 40° WNW 10:22:55 46° NW 10:26:56 10° NE
STARLINK-45 3.7 10:23:38 50° ESE 10:23:38 50° ESE 10:26:50 10° ENE
Cosmos 1315 Rocket 2.6 10:20:26 10° N 10:24:22 85° W 10:24:44 72° S
STARLINK-70 3.7 10:24:50 50° ESE 10:24:50 50° ESE 10:28:01 10° ENE
STARLINK-1028 4.4 10:25:02 36° SE 10:25:18 37° SE 10:29:07 10° ENE
Cosmos 2058 2.8 10:24:58 61° S 10:25:42 87° E 10:29:55 10° N
STARLINK-76 3.7 10:26:45 50° ESE 10:26:45 50° ESE 10:30:03 10° ENE
UNK 4.0 10:26:37 45° WSW 10:26:46 45° W 10:31:11 10° NNW
AQUA 3.9 10:22:40 10° N 10:27:22 60° WNW 10:28:26 47° SW
STARLINK-1277 4.5 10:26:53 35° WNW 10:27:55 42° NW 10:31:53 10° NE
STARLINK-23 3.6 10:28:06 52° ESE 10:28:06 52° ESE 10:31:25 10° ENE
STARLINK-1010 4.2 10:28:24 41° SSE 10:28:52 43° SE 10:32:54 10° ENE
STARLINK-32 3.5 10:29:33 54° SE 10:29:33 54° SE 10:32:55 10° ENE
Cosmos 2150 Rocket 4.4 10:24:51 10° NNW 10:29:39 40° WSW 10:30:00 40° WSW
STARLINK-1021 4.3 10:29:51 39° SSE 10:30:17 41° SE 10:34:12 10° ENE
STARLINK-40 3.4 10:31:18 57° SE 10:31:18 57° SE 10:34:47 10° NE
STARLINK-44 3.3 10:32:40 60° SE 10:32:40 60° SE 10:36:11 10° NE
Resurs 1-4 Rocket 2.9 10:28:48 10° N 10:33:39 38° WNW 10:35:11 31° WSW
STARLINK-37 3.1 10:34:38 68° SSE 10:34:45 69° SE 10:38:19 10° NE
STARLINK-1019 4.1 10:34:35 42° SSE 10:35:12 46° SE 10:39:10 10° ENE
STARLINK-36 3.2 10:35:38 64° SSE 10:35:44 64° SE 10:39:14 10° NE
Nadezhda 3 Rocket 4.0 10:32:31 10° N 10:38:49 72° W 10:42:28 27° S
Cosmos 2237 4.3 10:36:22 33° S 10:39:01 72° ESE 10:44:45 10° NNE
STARLINK-63 3.1 10:39:12 70° S 10:39:29 76° SE 10:43:03 10° NE
Meteor 2-2 Rocket 4.3 10:34:06 10° NNW 10:40:06 71° W 10:43:23 28° S
STARLINK-1012 4.0 10:39:23 44° S 10:40:10 51° SE 10:44:12 10° ENE
STARLINK-35 3.1 10:40:40 67° S 10:41:00 74° SE 10:44:34 10° NE
STARLINK-51 3.1 10:42:15 67° SSW 10:42:38 78° SE 10:46:13 10° NE
STARLINK-30 3.1 10:43:48 65° SSW 10:44:15 81° SE 10:47:49 10° NE
GEOS 3 Rocket 3.6 10:39:25 10° SE 10:44:35 89° ENE 10:49:52 10° NW
Cosmos 1125 Rocket 3.7 10:40:13 10° NNW 10:45:13 49° WSW 10:47:00 34° SSW
STARLINK-72 3.1 10:45:21 63° SW 10:45:51 84° SE 10:49:26 10° NE
STARLINK-59 3.1 10:48:30 58° WSW 10:49:09 85° NW 10:52:43 10° NE
STARLINK-1026 3.7 10:48:56 43° SSW 10:50:05 64° SE 10:54:12 10° NE
SL-16 R/B 2.9 10:47:50 28° WSW 10:50:13 40° WNW 10:55:34 10° N
STARLINK-56 3.1 10:49:57 56° SW 10:50:37 87° NW 10:54:12 10° NE
STARLINK-71 3.4 10:49:39 46° SW 10:50:47 89° NW 10:54:49 10° NE
STARLINK-73 3.1 10:51:33 53° WSW 10:52:18 83° NW 10:55:52 10° NE
Cosmos 1844 Rocket 4.1 10:47:50 10° N 10:53:02 38° ENE 10:58:11 10° SE
STARLINK-50 3.2 10:52:12 49° SW 10:53:08 87° NW 10:56:54 10° NE
COSMOS 2428 4.4 10:48:50 10° SSE 10:53:29 27° ESE 10:58:08 10° NE
STARLINK-60 3.3 10:50:33 10° NW 10:53:44 64° NE 10:56:53 10° ESE
STARLINK-38 3.1 10:53:05 51° WSW 10:53:54 80° NW 10:57:27 10° NE
STARLINK-68 3.3 10:53:27 47° WSW 10:54:21 73° NW 10:57:58 10° NE
Meteor 1-28 Rocket 4.2 10:51:07 10° SSE 10:54:42 45° ENE 10:58:16 10° N
STARLINK-1013 3.6 10:53:44 40° SSW 10:55:04 71° SE 10:59:12 10° NE
IRS-P3 4.1 10:50:10 10° N 10:55:29 73° WNW 10:58:20 28° SSW
STARLINK-65 3.2 10:54:39 48° WSW 10:55:31 77° NW 10:59:05 10° NE
STARLINK-53 3.3 10:56:16 44° WSW 10:57:12 70° NW 11:00:46 10° NE
SL-4 R/B 2.4 10:53:41 10° NW 10:58:30 77° NE 11:03:02 10° SE
STARLINK-1009 3.6 10:58:30 38° SW 11:00:01 79° SE 11:04:10 10° NE
STARLINK-1444 3.3 10:57:50 10° NW 11:00:02 43° NE 11:02:22 10° ESE
CZ-2D R/B 4.1 10:56:24 10° NNE 11:00:37 55° E 11:03:41 18° S
STARLINK-1452 3.3 10:58:27 10° NW 11:00:40 44° NE 11:02:59 10° ESE
STARLINK-1450 3.2 10:59:18 10° NW 11:01:27 45° NE 11:03:43 10° ESE
USA 229 DEB 3.9 10:54:11 10° NW 11:01:28 61° WSW 11:09:00 10° SSE
USA 229 3.9 10:54:18 10° NW 11:01:34 62° WSW 11:09:06 10° SSE
STARLINK-1392 3.2 10:59:30 10° NW 11:01:39 45° NE 11:03:56 10° ESE
STARLINK-1415 3.2 10:59:30 10° NW 11:01:39 45° NE 11:03:56 10° ESE
STARLINK-1399 3.2 10:59:31 10° NW 11:01:40 45° NE 11:03:57 10° ESE
STARLINK-1394 3.2 10:59:32 10° NW 11:01:41 45° NE 11:03:58 10° ESE
STARLINK-1395 3.2 10:59:32 10° NW 11:01:41 45° NE 11:03:58 10° ESE
STARLINK-1393 3.2 10:59:33 10° NW 11:01:42 45° NE 11:03:59 10° ESE
STARLINK-1401 3.2 10:59:33 10° NW 11:01:42 45° NE 11:03:59 10° ESE
STARLINK-1396 3.2 10:59:33 10° NW 11:01:42 45° NE 11:03:59 10° ESE
STARLINK-1397 3.2 10:59:33 10° NW 11:01:42 45° NE 11:03:59 10° ESE
STARLINK-1453 3.2 10:59:33 10° NW 11:01:42 45° NE 11:03:59 10° ESE
STARLINK-1404 3.2 10:59:35 10° NW 11:01:44 45° NE 11:04:01 10° ESE
STARLINK-1417 3.2 10:59:36 10° NW 11:01:45 45° NE 11:04:02 10° ESE
STARLINK-1402 3.2 10:59:36 10° NW 11:01:45 45° NE 11:04:02 10° ESE
STARLINK-1413 3.2 10:59:37 10° NW 11:01:46 45° NE 11:04:03 10° ESE
STARLINK-1406 3.2 10:59:38 10° NW 11:01:48 45° NE 11:04:04 10° ESE
STARLINK-1440 3.2 10:59:40 10° NW 11:01:49 45° NE 11:04:06 10° ESE
STARLINK-1445 3.2 10:59:41 10° NW 11:01:50 46° NE 11:04:07 10° ESE
STARLINK-1443 3.2 10:59:41 10° NW 11:01:51 46° NE 11:04:07 10° ESE
STARLINK-1454 3.2 10:59:42 10° NW 11:01:51 46° NE 11:04:08 10° ESE
STARLINK-1414 3.2 10:59:41 10° NW 11:01:52 46° NE 11:04:12 10° ESE
STARLINK-1457 3.2 10:59:43 10° NW 11:01:52 46° NE 11:04:09 10° ESE
STARLINK-1456 3.2 10:59:43 10° NW 11:01:53 46° NE 11:04:09 10° ESE
STARLINK-1451 3.2 10:59:44 10° NW 11:01:53 46° NE 11:04:10 10° ESE
STARLINK-1442 3.2 10:59:44 10° NW 11:01:54 46° NE 11:04:11 10° ESE
STARLINK-1416 3.2 10:59:43 10° NW 11:01:54 46° NE 11:04:14 10° ESE
STARLINK-1408 3.2 10:59:44 10° NW 11:01:55 46° NE 11:04:15 10° ESE
STARLINK-1405 3.1 10:59:47 10° NW 11:01:57 46° NE 11:04:14 10° ESE
STARLINK-1421 3.1 10:59:48 10° NW 11:01:57 46° NE 11:04:14 10° ESE
STARLINK-1410 3.1 10:59:48 10° NW 11:01:58 46° NE 11:04:15 10° ESE
STARLINK-1400 3.1 10:59:48 10° NW 11:01:58 46° NE 11:04:15 10° ESE
STARLINK-1407 3.1 10:59:49 10° NW 11:01:59 46° NE 11:04:16 10° ESE
STARLINK-1439 3.1 10:59:49 10° NW 11:01:59 46° NE 11:04:16 10° ESE
STARLINK-1436 (VISORSAT) 3.2 10:59:47 10° NW 11:01:59 46° NE 11:04:19 10° ESE
STARLINK-1419 3.2 10:59:47 10° NW 11:02:00 46° NE 11:04:19 10° ESE
STARLINK-1409 3.1 10:59:50 10° NW 11:02:00 46° NE 11:04:17 10° ESE
STARLINK-1351 3.1 10:59:51 10° NW 11:02:01 46° NE 11:04:18 10° ESE
STARLINK-1370 3.1 10:59:51 10° NW 11:02:01 46° NE 11:04:18 10° ESE
STARLINK-1418 3.1 10:59:52 10° NW 11:02:01 46° NE 11:04:18 10° ESE
STARLINK-1434 3.1 10:59:52 10° NW 11:02:01 46° NE 11:04:19 10° ESE
STARLINK-1398 3.2 10:59:49 10° NW 11:02:02 46° NE 11:04:22 10° ESE
STARLINK-1403 3.1 10:59:53 10° NW 11:02:02 46° NE 11:04:20 10° ESE
STARLINK-1433 3.1 10:59:54 10° NW 11:02:04 46° NE 11:04:21 10° ESE
STARLINK-1422 3.2 10:59:52 10° NW 11:02:04 46° NE 11:04:24 10° ESE
STARLINK-1420 3.2 10:59:53 10° NW 11:02:05 46° NE 11:04:24 10° ESE
STARLINK-1411 3.1 10:59:56 10° NW 11:02:05 46° NE 11:04:23 10° ESE
STARLINK-1438 3.1 10:59:56 10° NW 11:02:06 46° NE 11:04:24 10° ESE
STARLINK-1460 3.2 10:59:55 10° NW 11:02:08 47° NE 11:04:27 10° ESE
STARLINK-1458 3.2 10:59:59 10° NW 11:02:11 47° NE 11:04:31 10° ESE
STARLINK-1423 3.2 11:00:02 10° NW 11:02:14 47° NE 11:04:33 10° ESE
STARLINK-1446 3.2 11:00:03 10° NW 11:02:15 47° NE 11:04:35 10° ESE
STARLINK-1437 3.1 11:00:04 10° NW 11:02:16 47° NE 11:04:36 10° ESE
STARLINK-1447 3.1 11:00:07 10° NW 11:02:19 47° NE 11:04:39 10° ESE
STARLINK-1455 3.1 11:00:07 10° NW 11:02:20 47° NE 11:04:40 10° ESE
STARLINK-1441 3.1 11:00:08 10° NW 11:02:20 47° NE 11:04:41 10° ESE
CZ-2D R/B 3.6 10:58:34 10° NNW 11:02:23 21° WNW 11:04:27 17° W
STARLINK-1448 3.1 11:00:12 10° NW 11:02:25 47° NE 11:04:45 10° ESE
STARLINK-1449 3.1 11:00:13 10° NW 11:02:26 47° NE 11:04:46 10° ESE
STARLINK-1412 3.1 11:00:22 10° NW 11:02:35 47° NE 11:04:55 10° ESE
NOSS 3-1 (C) 4.2 10:55:07 10° NW 11:02:50 57° WSW 11:11:26 10° SSE
STARLINK-1015 3.5 11:03:17 34° SW 11:05:00 87° SE 11:09:10 10° NE
Cosmos 1606 4.5 11:03:24 10° NNE 11:06:49 31° ENE 11:10:13 10° SE
Cosmos 1892 3.8 11:06:57 25° W 11:07:40 27° WNW 11:10:56 10° NNW
ERS-2 2.8 11:04:16 10° SSE 11:07:51 55° ENE 11:11:27 10° N
SL-08 R/B 3.1 11:04:17 14° S 11:08:14 78° WSW 11:12:51 10° NNW
STARLINK-1016 3.5 11:08:03 31° SW 11:09:57 85° NW 11:14:07 10° NE
H-2A R/B 3.0 11:06:11 10° SSE 11:10:26 51° ENE 11:14:48 10° N
Cosmos 1766 Rocket 3.8 11:07:18 17° S 11:10:33 68° E 11:14:51 10° NNE
NOSS 3-1 (A) 4.1 11:02:51 10° NW 11:10:43 76° WSW 11:19:33 10° SSE
Okean 3 Rocket 3.6 11:08:07 20° S 11:11:17 83° E 11:15:51 10° N
Cosmos 2341 Rocket 4.2 11:08:23 22° SSW 11:12:27 56° W 11:18:41 10° N
CZ-2C R/B 3.7 11:08:57 10° NNE 11:12:35 43° E 11:15:56 12° S
Cosmos 773 Rocket 4.0 11:09:51 24° SSW 11:13:01 72° WNW 11:18:19 10° NNE
Cosmos 2360 Rocket 2.3 11:09:47 24° SW 11:13:06 61° WNW 11:18:42 10° NNE
Cosmos 2151 2.9 11:11:12 25° SSW 11:13:37 71° W 11:17:56 10° N
STARLINK-24 4.0 11:12:18 25° WSW 11:14:22 54° NW 11:18:19 10° NE
STARLINK-1008 3.6 11:12:51 28° SW 11:14:57 77° NW 11:19:07 10° NE
STARLINK-1014 3.7 11:17:40 25° WSW 11:19:57 70° NW 11:24:03 10° NE
CZ-3 R/B 4.4 10:46:20 17° SW 11:20:09 51° S 11:31:17 10° E
STARLINK-25 4.0 11:20:22 22° W 11:22:10 40° NW 11:25:25 10° NE
Lacrosse 5 rocket 2.6 11:21:10 15° S 11:24:00 30° SE 11:27:28 10° ENE
Cosmos 1959 Rocket 4.4 11:18:49 14° SSW 11:24:06 76° W 11:30:14 10° N
Cosmos 2333 Rocket 2.6 11:19:23 13° S 11:24:24 60° ESE 11:29:59 10° NNE
STARLINK-1025 3.8 11:22:25 22° WSW 11:24:56 64° NW 11:29:03 10° NE
STARLINK-29 3.5 11:22:57 10° NW 11:26:06 59° NE 11:29:13 10° ESE
Shenzhou-11 Module 3.6 11:25:58 10° NW 11:28:07 26° N 11:30:15 10° ENE
STARLINK-1017 3.9 11:27:11 20° WSW 11:29:53 58° NW 11:34:00 10° NE
Cosmos 2322 3.7 11:25:56 17° SSW 11:30:29 83° WNW 11:36:15 10° NNE
Cosmos 2219 Rocket 2.5 11:25:54 11° S 11:31:08 64° ESE 11:36:39 10° NNE
SL-8 Rocket 4.3 11:29:37 16° SSW 11:34:35 51° W 11:40:40 10° N
STARLINK-1023 4.1 11:31:58 18° WSW 11:34:52 53° NW 11:38:57 10° NE
STARLINK-81 4.4 11:33:57 15° W 11:36:30 34° NW 11:39:51 10° NNE
Cosmos 2218 Rocket 4.2 11:32:00 13° SSW 11:37:36 58° W 11:43:55 10° N
Cosmos 2333 4.2 11:35:10 15° SSW 11:39:52 73° WNW 11:45:31 10° NNE
STARLINK-1007 4.2 11:36:47 16° WSW 11:39:54 48° NW 11:43:56 10° NE
CZ-2C R/B 4.0 11:36:12 10° NNE 11:40:56 35° E 11:45:36 10° SSE
Cosmos 2263 Rocket 3.7 11:38:30 10° WNW 11:41:33 15° W 11:43:07 13° WSW
Cosmos 1408 4.4 11:40:31 14° WSW 11:41:59 17° WNW 11:44:28 10° NNW
ATLAS 5 CENTAUR R/B 2.9 11:39:51 10° S 11:43:24 30° ESE 11:47:12 10° NE
CZ-4B R/B 4.0 11:41:04 10° SE 11:43:31 22° ENE 11:46:01 10° NNE
ADEOS II 3.5 11:39:31 10° NNW 11:43:35 23° WNW 11:47:09 12° WSW
Cosmos 1825 3.4 11:42:06 16° WSW 11:44:07 25° WNW 11:47:17 10° NNW
STARLINK-1048 4.4 11:41:33 14° WSW 11:44:53 44° NW 11:48:52 10° NE
IDEFIX/ARIANE 42P 2.7 11:43:25 10° N 11:48:38 66° WNW 11:53:49 10° SSW
